Running & Sports

Kids & Family

Fitness & Health

Training


Large

41st Annual Doug Conley Invitational

Sat Sep 28, 2013

Rolling Hills Golf Course in Tempe, AZ

41st Annual Doug Conley Invitational

168 Participants

Expand Results

PLACE BIB ATHLETE NAME FINISH TIME
1 1 Nathan Rodriguez 15:55.19
2 336 Marcus Wheeler 16:01.20
3 4884 Anthony Masayesva 16:07.94
4 323 Ryan Normand 16:08.00
5 806 Tyler Day 16:13.69
6 1179 Alexander Stevens 16:21.44
7 1119 Oscar Amaya 16:25.19
8 908 Xiaija Schuldies 16:28.00
9 4885 Brian Masayesva 16:30.45
10 883 Josh Fleetwood 16:31.95
11 773 Brandon McKay 16:33.19
12 765 David Fernandez 16:33.44
13 244 Erik Oswald 16:42.94
14 440 Jonathan Stern 16:44.94
15 233 Keith Durkin 16:47.20
16 1126 Ben Noriega 16:49.44
17 905 Justin Littleman 16:52.20
18 880 Jacob Boubion 16:52.69
19 1164 Tyler Beauchamp 16:53.45
20 314 Blake Fischer 16:53.70
21 965 Gunner Albrecht 16:55.20
22 603 Anfernee Howard 16:55.44
23 599 Jonathan Vandeberg 16:55.45
24 906 Jeffery Miller 16:55.95
25 1106 Ahmed Mohamed 16:58.44
26 1158 Tim Otis 16:59.69
27 602 Terry Honventewa 17:02.70
28 451 Issac Cannon 17:02.70
29 1024 Andrew Sanchez 17:04.94
30 782 Cal Skilsky 17:07.44
31 269 Brandon Boys 17:07.69
32 137 Daren Burr 17:08.45
33 189 Louis Torres 17:09.20
34 1254 Isaiah Petty 17:10.94
35 671 Weston Jones 17:12.19
36 1120 Max Bojorquez 17:12.44
37 1211 Zach Alderete 17:13.20
38 4888 Jaiden Melendrez 17:14.94
39 309 Patrick Cullings 17:15.19
40 1099 Brandon Dorr 17:15.20
41 4890 Eddie Lughran 17:16.44
42 335 Andrew Truswell 17:18.94
43 1062 Jacob Kreitinger 17:21.20
44 608 Kelan Poleahla 17:21.69
45 4886 Albert Fuller 17:23.20
46 454 Nate Haines 17:26.44
47 308 Nicholas Creasman 17:30.44
48 4889 Kyle Sumatzkuku 17:30.94
49 4887 Vaughn Jackson 17:32.69
50 680 Carlin Resendez 17:33.19
51 788 Brett Willman 17:34.44
52 907 Caley Sandoval 17:35.94
53 1752 Mark Clark 17:36.20
54 437 Jonathan Palmer 17:36.96
55 486 Dj Harris 17:36.97
56 125 Mason Schirm 17:38.69
57 1753 Marcos Clark 17:39.20
58 426 Ryan Davis 17:39.70
59 658 Ben Brady 17:39.96
60 476 Nathan Chan 17:41.20
61 909 Marcus Onesalt 17:43.20
62 1153 Jaren Hofeling 17:44.44
63 766 Graydon Fritz 17:46.44
64 769 Jordan Hellebuyck 17:47.69
65 615 Skylen Tootsie 17:47.95
66 1751 Kyle Chee 17:49.44
67 1180 Dalton Stone 17:49.97
68 4851 Francisco Contreras 17:50.44
69 988 Dallin Thompson 17:51.44
70 694 Barrett Bromich Bromich 17:51.71
71 1067 Ray Perkins III 17:51.94
72 438 Michael Ristagno 17:53.46
73 614 Aaron Swimmer 17:54.45
74 240 Kamal Nadesan 17:54.94
75 164 Luke Mailliard 17:55.94
76 1754 Tristan Zahne 17:56.45
77 1122 Jose Gutierrez 17:56.94
78 432 Michael Johnson 17:57.19
79 1059 Ashton Hoopes 17:58.00
80 893 Alex Ramirez 17:58.20
81 460 Dustin Ratcliff 17:59.19
82 678 Weston Paige 18:01.94
83 709 Dahlak Shekay Shekay 18:02.69
84 1160 Jesse Rodriguez-Chavez 18:03.19
85 1173 Trey Koble 18:03.69
86 138 Louis Campbell 18:04.69
87 1361 Robert Diaz 18:05.00
88 1374 Jonathan Osei 18:06.69
89 910 Cody West 18:06.70
90 1372 Victor Mendoza 18:07.45
91 887 Nick Hald 18:10.94
92 121 Daniel Lozano 18:11.95
93 191 Andrew Webb 18:12.70
94 713 Hudson Walberg Walberg 18:12.71
95 675 Brandon Nielson 18:12.95
96 503 Anthony Ramirez 18:13.19
97 245 Kishan Patel 18:13.20
98 882 Matt Deweerdt 18:14.70
99 485 Jessen Harbertson 18:18.20
100 270 Jacob Chavez 18:24.69
PLACE BIB ATHLETE NAME AGE GENDER FINISH TIME
1 1 Nathan Rodriguez 15:55.19
2 336 Marcus Wheeler 16:01.20
3 4884 Anthony Masayesva 16:07.94
4 323 Ryan Normand 16:08.00
5 806 Tyler Day 16:13.69
6 1179 Alexander Stevens 16:21.44
7 1119 Oscar Amaya 16:25.19
8 908 Xiaija Schuldies 16:28.00
9 4885 Brian Masayesva 16:30.45
10 883 Josh Fleetwood 16:31.95
11 773 Brandon McKay 16:33.19
12 765 David Fernandez 16:33.44
13 244 Erik Oswald 16:42.94
14 440 Jonathan Stern 16:44.94
15 233 Keith Durkin 16:47.20
16 1126 Ben Noriega 16:49.44
17 905 Justin Littleman 16:52.20
18 880 Jacob Boubion 16:52.69
19 1164 Tyler Beauchamp 16:53.45
20 314 Blake Fischer 16:53.70
21 965 Gunner Albrecht 16:55.20
22 603 Anfernee Howard 16:55.44
23 599 Jonathan Vandeberg 16:55.45
24 906 Jeffery Miller 16:55.95
25 1106 Ahmed Mohamed 16:58.44
26 1158 Tim Otis 16:59.69
27 602 Terry Honventewa 17:02.70
28 451 Issac Cannon 17:02.70
29 1024 Andrew Sanchez 17:04.94
30 782 Cal Skilsky 17:07.44
31 269 Brandon Boys 17:07.69
32 137 Daren Burr 17:08.45
33 189 Louis Torres 17:09.20
34 1254 Isaiah Petty 17:10.94
35 671 Weston Jones 17:12.19
36 1120 Max Bojorquez 17:12.44
37 1211 Zach Alderete 17:13.20
38 4888 Jaiden Melendrez 17:14.94
39 309 Patrick Cullings 17:15.19
40 1099 Brandon Dorr 17:15.20
41 4890 Eddie Lughran 17:16.44
42 335 Andrew Truswell 17:18.94
43 1062 Jacob Kreitinger 17:21.20
44 608 Kelan Poleahla 17:21.69
45 4886 Albert Fuller 17:23.20
46 454 Nate Haines 17:26.44
47 308 Nicholas Creasman 17:30.44
48 4889 Kyle Sumatzkuku 17:30.94
49 4887 Vaughn Jackson 17:32.69
50 680 Carlin Resendez 17:33.19
51 788 Brett Willman 17:34.44
52 907 Caley Sandoval 17:35.94
53 1752 Mark Clark 17:36.20
54 437 Jonathan Palmer 17:36.96
55 486 Dj Harris 17:36.97
56 125 Mason Schirm 17:38.69
57 1753 Marcos Clark 17:39.20
58 426 Ryan Davis 17:39.70
59 658 Ben Brady 17:39.96
60 476 Nathan Chan 17:41.20
61 909 Marcus Onesalt 17:43.20
62 1153 Jaren Hofeling 17:44.44
63 766 Graydon Fritz 17:46.44
64 769 Jordan Hellebuyck 17:47.69
65 615 Skylen Tootsie 17:47.95
66 1751 Kyle Chee 17:49.44
67 1180 Dalton Stone 17:49.97
68 4851 Francisco Contreras 17:50.44
69 988 Dallin Thompson 17:51.44
70 694 Barrett Bromich Bromich 17:51.71
71 1067 Ray Perkins III 17:51.94
72 438 Michael Ristagno 17:53.46
73 614 Aaron Swimmer 17:54.45
74 240 Kamal Nadesan 17:54.94
75 164 Luke Mailliard 17:55.94
76 1754 Tristan Zahne 17:56.45
77 1122 Jose Gutierrez 17:56.94
78 432 Michael Johnson 17:57.19
79 1059 Ashton Hoopes 17:58.00
80 893 Alex Ramirez 17:58.20
81 460 Dustin Ratcliff 17:59.19
82 678 Weston Paige 18:01.94
83 709 Dahlak Shekay Shekay 18:02.69
84 1160 Jesse Rodriguez-Chavez 18:03.19
85 1173 Trey Koble 18:03.69
86 138 Louis Campbell 18:04.69
87 1361 Robert Diaz 18:05.00
88 1374 Jonathan Osei 18:06.69
89 910 Cody West 18:06.70
90 1372 Victor Mendoza 18:07.45
91 887 Nick Hald 18:10.94
92 121 Daniel Lozano 18:11.95
93 191 Andrew Webb 18:12.70
94 713 Hudson Walberg Walberg 18:12.71
95 675 Brandon Nielson 18:12.95
96 503 Anthony Ramirez 18:13.19
97 245 Kishan Patel 18:13.20
98 882 Matt Deweerdt 18:14.70
99 485 Jessen Harbertson 18:18.20
100 270 Jacob Chavez 18:24.69